Time,TemperatureF,DewpointF,PressureIn,WindDirection,WindDirectionDegrees,WindSpeedMPH,WindSpeedGustMPH,Humidity,HourlyPrecipIn,Conditions,Clouds,dailyrainin,SoftwareType,DateUTC
2013-04-15 00:02:00,45.9,41.1,0.00,NW,314,1.0,3.7,83,0.00,,,0.00,WUHU216CR1000,2013-04-15 07:02:00,
2013-04-15 00:17:00,44.9,40.8,0.00,West,264,1.5,4.6,85,0.00,,,0.00,WUHU216CR1000,2013-04-15 07:17:00,
2013-04-15 00:41:00,45.9,41.1,0.00,West,281,4.0,8.3,83,0.00,,,0.00,WUHU216CR1000,2013-04-15 07:41:00,
2013-04-15 00:47:00,47.2,41.6,0.00,WNW,288,6.1,12.9,81,0.00,,,0.00,WUHU216CR1000,2013-04-15 07:47:00,
2013-04-15 00:48:00,47.2,41.6,0.00,WNW,288,6.1,12.9,81,0.00,,,0.00,WUHU216CR1000,2013-04-15 07:48:00,
2013-04-15 00:51:00,47.2,41.6,0.00,WNW,288,6.1,12.9,81,0.00,,,0.00,WUHU216CR1000,2013-04-15 07:51:00,
2013-04-15 00:56:00,47.2,41.6,0.00,WNW,288,6.1,12.9,81,0.00,,,0.00,WUHU216CR1000,2013-04-15 07:56:00,
2013-04-15 01:02:00,47.6,41.5,0.00,West,277,8.4,14.3,79,0.00,,,0.00,WUHU216CR1000,2013-04-15 08:02:00,
2013-04-15 01:07:00,47.6,41.5,0.00,West,277,8.4,14.3,79,0.00,,,0.00,WUHU216CR1000,2013-04-15 08:07:00,
2013-04-15 01:17:00,47.3,41.1,0.00,West,271,8.5,15.2,79,0.00,,,0.00,WUHU216CR1000,2013-04-15 08:17:00,
2013-04-15 01:22:00,47.3,41.1,0.00,West,271,8.5,15.2,79,0.00,,,0.00,WUHU216CR1000,2013-04-15 08:22:00,
2013-04-15 01:32:00,47.1,40.8,0.00,West,269,8.8,12.9,79,0.00,,,0.00,WUHU216CR1000,2013-04-15 08:32:00,
2013-04-15 01:36:00,47.1,40.8,0.00,West,269,8.8,12.9,79,0.00,,,0.00,WUHU216CR1000,2013-04-15 08:36:00,
2013-04-15 01:40:00,47.1,40.8,0.00,West,269,8.8,12.9,79,0.00,,,0.00,WUHU216CR1000,2013-04-15 08:40:00,
2013-04-15 01:47:00,47.0,40.6,0.00,West,270,7.8,11.7,78,0.00,,,0.00,WUHU216CR1000,2013-04-15 08:47:00,
2013-04-15 01:52:00,47.0,40.6,0.00,West,270,7.8,11.7,78,0.00,,,0.00,WUHU216CR1000,2013-04-15 08:52:00,
2013-04-15 02:02:00,46.6,40.5,0.00,West,270,6.4,9.5,79,0.00,,,0.00,WUHU216CR1000,2013-04-15 09:02:00,
2013-04-15 02:07:00,46.6,40.5,0.00,West,270,6.4,9.5,79,0.00,,,0.00,WUHU216CR1000,2013-04-15 09:07:00,
2013-04-15 02:17:00,45.9,40.3,0.00,West,275,6.3,9.1,81,0.00,,,0.00,WUHU216CR1000,2013-04-15 09:17:00,
2013-04-15 02:22:00,45.9,40.3,0.00,West,275,6.3,9.1,81,0.00,,,0.00,WUHU216CR1000,2013-04-15 09:22:00,
2013-04-15 02:32:00,45.3,40.1,0.00,West,274,5.8,8.4,82,0.00,,,0.00,WUHU216CR1000,2013-04-15 09:32:00,
2013-04-15 02:37:00,45.3,40.1,0.00,West,274,5.8,8.4,82,0.00,,,0.00,WUHU216CR1000,2013-04-15 09:37:00,
2013-04-15 02:47:00,45.2,40.0,0.00,WNW,285,4.4,8.1,82,0.00,,,0.00,WUHU216CR1000,2013-04-15 09:47:00,
2013-04-15 02:52:00,45.2,40.0,0.00,WNW,285,4.4,8.1,82,0.00,,,0.00,WUHU216CR1000,2013-04-15 09:52:00,
2013-04-15 03:02:00,45.0,39.8,0.00,WNW,283,4.8,7.5,82,0.00,,,0.00,WUHU216CR1000,2013-04-15 10:02:00,
2013-04-15 03:07:00,45.0,39.8,0.00,WNW,283,4.8,7.5,82,0.00,,,0.00,WUHU216CR1000,2013-04-15 10:07:00,
2013-04-15 03:17:00,44.7,39.7,0.00,WNW,285,4.8,8.8,83,0.00,,,0.00,WUHU216CR1000,2013-04-15 10:17:00,
2013-04-15 03:22:00,44.7,39.7,0.00,WNW,285,4.8,8.8,83,0.00,,,0.00,WUHU216CR1000,2013-04-15 10:22:00,
2013-04-15 03:32:00,43.9,39.3,0.00,NNW,330,1.5,3.9,84,0.00,,,0.00,WUHU216CR1000,2013-04-15 10:32:00,
2013-04-15 03:37:00,43.9,39.3,0.00,NNW,330,1.5,3.9,84,0.00,,,0.00,WUHU216CR1000,2013-04-15 10:37:00,
2013-04-15 03:47:00,43.8,39.5,0.00,West,274,1.2,7.6,85,0.00,,,0.00,WUHU216CR1000,2013-04-15 10:47:00,
2013-04-15 03:52:00,43.8,39.5,0.00,West,274,1.2,7.6,85,0.00,,,0.00,WUHU216CR1000,2013-04-15 10:52:00,
2013-04-15 04:02:00,44.3,39.2,0.00,WSW,248,3.3,6.1,82,0.00,,,0.00,WUHU216CR1000,2013-04-15 11:02:00,
2013-04-15 04:07:00,44.3,39.2,0.00,WSW,248,3.3,6.1,82,0.00,,,0.00,WUHU216CR1000,2013-04-15 11:07:00,
2013-04-15 04:17:00,44.5,39.2,0.00,WSW,251,5.5,10.0,82,0.00,,,0.00,WUHU216CR1000,2013-04-15 11:17:00,
2013-04-15 04:22:00,44.5,39.2,0.00,WSW,251,5.5,10.0,82,0.00,,,0.00,WUHU216CR1000,2013-04-15 11:22:00,
2013-04-15 04:32:00,45.1,39.1,0.00,West,260,7.3,12.1,79,0.00,,,0.00,WUHU216CR1000,2013-04-15 11:32:00,
2013-04-15 04:37:00,45.1,39.1,0.00,West,260,7.3,12.1,79,0.00,,,0.00,WUHU216CR1000,2013-04-15 11:37:00,
2013-04-15 04:47:00,45.0,38.8,0.00,West,267,7.7,13.4,79,0.00,,,0.00,WUHU216CR1000,2013-04-15 11:47:00,
2013-04-15 04:52:00,45.0,38.8,0.00,West,267,7.7,13.4,79,0.00,,,0.00,WUHU216CR1000,2013-04-15 11:52:00,
2013-04-15 07:47:00,45.9,34.8,0.00,WNW,298,13.3,21.7,65,0.00,,,0.00,WUHU216CR1000,2013-04-15 14:47:00,
2013-04-15 07:52:00,45.9,34.8,0.00,WNW,298,13.3,21.7,65,0.00,,,0.00,WUHU216CR1000,2013-04-15 14:52:00,
2013-04-15 08:02:00,46.5,34.8,0.00,WNW,298,14.4,25.0,64,0.00,,,0.00,WUHU216CR1000,2013-04-15 15:02:00,
2013-04-15 08:07:00,46.5,34.8,0.00,WNW,298,14.4,25.0,64,0.00,,,0.00,WUHU216CR1000,2013-04-15 15:07:00,
2013-04-15 08:17:00,47.0,34.6,0.00,WNW,303,16.0,25.3,62,0.00,,,0.00,WUHU216CR1000,2013-04-15 15:17:00,
2013-04-15 08:22:00,47.0,34.6,0.00,WNW,303,16.0,25.3,62,0.00,,,0.00,WUHU216CR1000,2013-04-15 15:22:00,
2013-04-15 08:32:00,47.7,34.4,0.00,WNW,300,17.5,26.3,60,0.00,,,0.00,WUHU216CR1000,2013-04-15 15:32:00,
2013-04-15 08:37:00,47.7,34.4,0.00,WNW,300,17.5,26.3,60,0.00,,,0.00,WUHU216CR1000,2013-04-15 15:37:00,
2013-04-15 08:47:00,48.7,34.2,0.00,WNW,301,15.2,25.8,57,0.00,,,0.00,WUHU216CR1000,2013-04-15 15:47:00,
2013-04-15 08:52:00,48.7,34.2,0.00,WNW,301,15.2,25.8,57,0.00,,,0.00,WUHU216CR1000,2013-04-15 15:52:00,
2013-04-15 09:02:00,49.4,33.9,0.00,WNW,302,17.1,27.9,55,0.00,,,0.00,WUHU216CR1000,2013-04-15 16:02:00,
2013-04-15 09:07:00,49.4,33.9,0.00,WNW,302,17.1,27.9,55,0.00,,,0.00,WUHU216CR1000,2013-04-15 16:07:00,
2013-04-15 09:17:00,50.4,33.9,0.00,WNW,303,14.9,22.5,53,0.00,,,0.00,WUHU216CR1000,2013-04-15 16:17:00,
2013-04-15 09:22:00,50.4,33.9,0.00,WNW,303,14.9,22.5,53,0.00,,,0.00,WUHU216CR1000,2013-04-15 16:22:00,
2013-04-15 09:32:00,51.1,33.4,0.00,WNW,303,17.0,27.2,51,0.00,,,0.00,WUHU216CR1000,2013-04-15 16:32:00,
2013-04-15 09:37:00,51.1,33.4,0.00,WNW,303,17.0,27.2,51,0.00,,,0.00,WUHU216CR1000,2013-04-15 16:37:00,
2013-04-15 09:47:00,52.0,33.0,0.00,WNW,303,18.3,32.3,48,0.00,,,0.00,WUHU216CR1000,2013-04-15 16:47:00,
2013-04-15 09:52:00,52.0,33.0,0.00,WNW,303,18.3,32.3,48,0.00,,,0.00,WUHU216CR1000,2013-04-15 16:52:00,
2013-04-15 10:02:00,52.9,32.5,0.00,NW,304,16.5,26.6,46,0.00,,,0.00,WUHU216CR1000,2013-04-15 17:02:00,
2013-04-15 10:07:00,52.9,32.5,0.00,NW,304,16.5,26.6,46,0.00,,,0.00,WUHU216CR1000,2013-04-15 17:07:00,
2013-04-15 10:17:00,53.7,33.1,0.00,WNW,303,15.7,27.4,45,0.00,,,0.00,WUHU216CR1000,2013-04-15 17:17:00,
2013-04-15 10:21:00,53.7,33.1,0.00,WNW,303,15.7,27.4,45,0.00,,,0.00,WUHU216CR1000,2013-04-15 17:21:00,
2013-04-15 10:25:00,53.7,33.1,0.00,WNW,303,15.7,27.4,45,0.00,,,0.00,WUHU216CR1000,2013-04-15 17:25:00,
2013-04-15 10:32:00,54.7,32.9,0.00,NW,318,13.6,26.2,44,0.00,,,0.00,WUHU216CR1000,2013-04-15 17:32:00,
2013-04-15 10:37:00,54.7,32.9,0.00,NW,318,13.6,26.2,44,0.00,,,0.00,WUHU216CR1000,2013-04-15 17:37:00,
2013-04-15 10:47:00,55.1,32.1,0.00,NW,315,14.9,24.3,41,0.00,,,0.00,WUHU216CR1000,2013-04-15 17:47:00,
2013-04-15 10:52:00,55.1,32.1,0.00,NW,315,14.9,24.3,41,0.00,,,0.00,WUHU216CR1000,2013-04-15 17:52:00,
2013-04-15 11:02:00,55.8,31.6,0.00,NW,316,16.7,26.3,40,0.00,,,0.00,WUHU216CR1000,2013-04-15 18:02:00,
2013-04-15 11:07:00,55.8,31.6,0.00,NW,316,16.7,26.3,40,0.00,,,0.00,WUHU216CR1000,2013-04-15 18:07:00,
2013-04-15 11:17:00,56.5,30.7,0.00,NW,307,17.8,27.6,37,0.00,,,0.00,WUHU216CR1000,2013-04-15 18:17:00,
2013-04-15 11:22:00,56.5,30.7,0.00,NW,307,17.8,27.6,37,0.00,,,0.00,WUHU216CR1000,2013-04-15 18:22:00,
2013-04-15 11:32:00,57.3,30.9,0.00,WNW,300,17.1,28.5,36,0.00,,,0.00,WUHU216CR1000,2013-04-15 18:32:00,
2013-04-15 11:37:00,57.3,30.9,0.00,WNW,300,17.1,28.5,36,0.00,,,0.00,WUHU216CR1000,2013-04-15 18:37:00,
2013-04-15 11:47:00,58.1,31.4,0.00,WNW,301,17.7,28.3,36,0.00,,,0.00,WUHU216CR1000,2013-04-15 18:47:00,
2013-04-15 11:52:00,58.1,31.4,0.00,WNW,301,17.7,28.3,36,0.00,,,0.00,WUHU216CR1000,2013-04-15 18:52:00,
2013-04-15 12:02:00,57.9,31.1,0.00,NW,304,16.5,26.2,36,0.00,,,0.00,WUHU216CR1000,2013-04-15 19:02:00,
2013-04-15 12:07:00,57.9,31.1,0.00,NW,304,16.5,26.2,36,0.00,,,0.00,WUHU216CR1000,2013-04-15 19:07:00,
2013-04-15 12:17:00,58.7,31.8,0.00,NW,311,14.2,22.8,36,0.00,,,0.00,WUHU216CR1000,2013-04-15 19:17:00,
2013-04-15 12:22:00,58.7,31.8,0.00,NW,311,14.2,22.8,36,0.00,,,0.00,WUHU216CR1000,2013-04-15 19:22:00,
2013-04-15 12:32:00,59.0,31.3,0.00,WNW,300,16.9,26.5,35,0.00,,,0.00,WUHU216CR1000,2013-04-15 19:32:00,
2013-04-15 12:37:00,59.0,31.3,0.00,WNW,300,16.9,26.5,35,0.00,,,0.00,WUHU216CR1000,2013-04-15 19:37:00,
2013-04-15 12:47:00,59.6,31.8,0.00,NW,304,15.5,26.1,35,0.00,,,0.00,WUHU216CR1000,2013-04-15 19:47:00,
2013-04-15 12:52:00,59.6,31.8,0.00,NW,304,15.5,26.1,35,0.00,,,0.00,WUHU216CR1000,2013-04-15 19:52:00,
2013-04-15 13:02:00,60.2,34.1,0.00,WNW,294,13.5,27.2,38,0.00,,,0.00,WUHU216CR1000,2013-04-15 20:02:00,
2013-04-15 13:07:00,60.2,34.1,0.00,WNW,294,13.5,27.2,38,0.00,,,0.00,WUHU216CR1000,2013-04-15 20:07:00,
2013-04-15 13:17:00,60.3,33.3,0.00,WNW,291,14.9,26.9,36,0.00,,,0.00,WUHU216CR1000,2013-04-15 20:17:00,
2013-04-15 13:22:00,60.3,33.3,0.00,WNW,291,14.9,26.9,36,0.00,,,0.00,WUHU216CR1000,2013-04-15 20:22:00,
2013-04-15 13:32:00,60.1,33.2,0.00,WNW,298,15.3,26.9,36,0.00,,,0.00,WUHU216CR1000,2013-04-15 20:32:00,
2013-04-15 13:37:00,60.1,33.2,0.00,WNW,298,15.3,26.9,36,0.00,,,0.00,WUHU216CR1000,2013-04-15 20:37:00,
2013-04-15 13:47:00,60.1,33.5,0.00,WNW,292,16.1,32.5,37,0.00,,,0.00,WUHU216CR1000,2013-04-15 20:47:00,
2013-04-15 13:52:00,60.1,33.5,0.00,WNW,292,16.1,32.5,37,0.00,,,0.00,WUHU216CR1000,2013-04-15 20:52:00,
2013-04-15 14:02:00,60.5,34.0,0.00,WNW,295,16.1,28.7,37,0.00,,,0.00,WUHU216CR1000,2013-04-15 21:02:00,
2013-04-15 14:07:00,60.5,34.0,0.00,WNW,295,16.1,28.7,37,0.00,,,0.00,WUHU216CR1000,2013-04-15 21:07:00,
2013-04-15 14:17:00,59.8,34.1,0.00,WNW,299,17.3,28.1,38,0.00,,,0.00,WUHU216CR1000,2013-04-15 21:17:00,
2013-04-15 14:22:00,59.8,34.1,0.00,WNW,299,17.3,28.1,38,0.00,,,0.00,WUHU216CR1000,2013-04-15 21:22:00,
2013-04-15 14:32:00,58.5,34.4,0.00,NW,304,18.9,32.4,40,0.00,,,0.00,WUHU216CR1000,2013-04-15 21:32:00,
2013-04-15 14:37:00,58.5,34.4,0.00,NW,304,18.9,32.4,40,0.00,,,0.00,WUHU216CR1000,2013-04-15 21:37:00,
2013-04-15 14:47:00,59.3,34.2,0.00,WNW,290,17.3,30.0,39,0.00,,,0.00,WUHU216CR1000,2013-04-15 21:47:00,
2013-04-15 14:52:00,59.3,34.2,0.00,WNW,290,17.3,30.0,39,0.00,,,0.00,WUHU216CR1000,2013-04-15 21:52:00,
2013-04-15 15:02:00,59.4,34.3,0.00,NW,305,16.5,28.8,39,0.00,,,0.00,WUHU216CR1000,2013-04-15 22:02:00,
2013-04-15 15:07:00,59.4,34.3,0.00,NW,305,16.5,28.8,39,0.00,,,0.00,WUHU216CR1000,2013-04-15 22:07:00,
2013-04-15 15:17:00,59.0,33.2,0.00,NW,306,18.6,34.1,38,0.00,,,0.00,WUHU216CR1000,2013-04-15 22:17:00,
2013-04-15 15:22:00,59.0,33.2,0.00,NW,306,18.6,34.1,38,0.00,,,0.00,WUHU216CR1000,2013-04-15 22:22:00,
2013-04-15 15:32:00,59.0,33.6,0.00,WNW,297,18.3,28.9,38,0.00,,,0.00,WUHU216CR1000,2013-04-15 22:32:00,
2013-04-15 15:37:00,59.0,33.6,0.00,WNW,297,18.3,28.9,38,0.00,,,0.00,WUHU216CR1000,2013-04-15 22:37:00,
2013-04-15 15:47:00,58.8,33.7,0.00,WNW,303,18.0,26.9,39,0.00,,,0.00,WUHU216CR1000,2013-04-15 22:47:00,
2013-04-15 15:52:00,58.8,33.7,0.00,WNW,303,18.0,26.9,39,0.00,,,0.00,WUHU216CR1000,2013-04-15 22:52:00,
2013-04-15 16:02:00,58.8,33.7,0.00,WNW,297,18.9,31.5,39,0.00,,,0.00,WUHU216CR1000,2013-04-15 23:02:00,
2013-04-15 16:07:00,58.8,33.7,0.00,WNW,297,18.9,31.5,39,0.00,,,0.00,WUHU216CR1000,2013-04-15 23:07:00,
2013-04-15 16:17:00,58.6,33.9,0.00,WNW,301,16.3,27.5,39,0.00,,,0.00,WUHU216CR1000,2013-04-15 23:17:00,
2013-04-15 16:22:00,58.6,33.9,0.00,WNW,301,16.3,27.5,39,0.00,,,0.00,WUHU216CR1000,2013-04-15 23:22:00,
2013-04-15 16:32:00,58.2,33.3,0.00,NW,308,16.1,26.0,39,0.00,,,0.00,WUHU216CR1000,2013-04-15 23:32:00,
2013-04-15 16:37:00,58.2,33.3,0.00,NW,308,16.1,26.0,39,0.00,,,0.00,WUHU216CR1000,2013-04-15 23:37:00,
2013-04-15 16:47:00,58.1,32.6,0.00,NW,306,15.6,25.8,38,0.00,,,0.00,WUHU216CR1000,2013-04-15 23:47:00,
2013-04-15 16:52:00,58.1,32.6,0.00,NW,306,15.6,25.8,38,0.00,,,0.00,WUHU216CR1000,2013-04-15 23:52:00,
2013-04-15 17:02:00,58.0,32.8,0.00,WNW,294,16.4,26.3,38,0.00,,,0.00,WUHU216CR1000,2013-04-16 00:02:00,
2013-04-15 17:07:00,58.0,32.8,0.00,WNW,294,16.4,26.3,38,0.00,,,0.00,WUHU216CR1000,2013-04-16 00:07:00,
2013-04-15 17:17:00,57.3,32.7,0.00,WNW,294,18.0,28.2,39,0.00,,,0.00,WUHU216CR1000,2013-04-16 00:17:00,
2013-04-15 17:22:00,57.3,32.7,0.00,WNW,294,18.0,28.2,39,0.00,,,0.00,WUHU216CR1000,2013-04-16 00:22:00,
2013-04-15 17:32:00,56.8,32.5,0.00,WNW,301,17.2,30.1,40,0.00,,,0.00,WUHU216CR1000,2013-04-16 00:32:00,
2013-04-15 17:37:00,56.8,32.5,0.00,WNW,301,17.2,30.1,40,0.00,,,0.00,WUHU216CR1000,2013-04-16 00:37:00,
2013-04-15 17:47:00,56.2,31.4,0.00,NW,310,19.3,29.9,39,0.00,,,0.00,WUHU216CR1000,2013-04-16 00:47:00,
2013-04-15 17:52:00,56.2,31.4,0.00,NW,310,19.3,29.9,39,0.00,,,0.00,WUHU216CR1000,2013-04-16 00:52:00,
2013-04-15 18:02:00,55.9,31.8,0.00,WNW,300,18.4,28.7,40,0.00,,,0.00,WUHU216CR1000,2013-04-16 01:02:00,
2013-04-15 18:07:00,55.9,31.8,0.00,WNW,300,18.4,28.7,40,0.00,,,0.00,WUHU216CR1000,2013-04-16 01:07:00,
2013-04-15 18:17:00,55.4,32.3,0.00,WNW,296,17.9,29.1,41,0.00,,,0.00,WUHU216CR1000,2013-04-16 01:17:00,
2013-04-15 18:22:00,55.4,32.3,0.00,WNW,296,17.9,29.1,41,0.00,,,0.00,WUHU216CR1000,2013-04-16 01:22:00,
2013-04-15 18:32:00,54.8,32.8,0.00,WNW,298,17.2,33.4,43,0.00,,,0.00,WUHU216CR1000,2013-04-16 01:32:00,
2013-04-15 18:37:00,54.8,32.8,0.00,WNW,298,17.2,33.4,43,0.00,,,0.00,WUHU216CR1000,2013-04-16 01:37:00,
2013-04-15 18:47:00,54.4,32.8,0.00,WNW,298,18.0,30.9,44,0.00,,,0.00,WUHU216CR1000,2013-04-16 01:47:00,
2013-04-15 18:52:00,54.4,32.8,0.00,WNW,298,18.0,30.9,44,0.00,,,0.00,WUHU216CR1000,2013-04-16 01:52:00,
2013-04-15 19:02:00,53.7,33.1,0.00,WNW,298,17.5,28.8,45,0.00,,,0.00,WUHU216CR1000,2013-04-16 02:02:00,
2013-04-15 19:07:00,53.7,33.1,0.00,WNW,298,17.5,28.8,45,0.00,,,0.00,WUHU216CR1000,2013-04-16 02:07:00,
2013-04-15 19:17:00,53.0,33.3,0.00,WNW,299,13.9,26.0,47,0.00,,,0.00,WUHU216CR1000,2013-04-16 02:17:00,
2013-04-15 19:22:00,53.0,33.3,0.00,WNW,299,13.9,26.0,47,0.00,,,0.00,WUHU216CR1000,2013-04-16 02:22:00,
2013-04-15 19:32:00,52.2,33.0,0.00,WNW,295,13.8,22.4,48,0.00,,,0.00,WUHU216CR1000,2013-04-16 02:32:00,
2013-04-15 19:37:00,52.2,33.0,0.00,WNW,295,13.8,22.4,48,0.00,,,0.00,WUHU216CR1000,2013-04-16 02:37:00,
2013-04-15 19:47:00,51.1,33.3,0.00,WNW,288,12.7,20.2,50,0.00,,,0.00,WUHU216CR1000,2013-04-16 02:47:00,
2013-04-15 19:52:00,51.1,33.3,0.00,WNW,288,12.7,20.2,50,0.00,,,0.00,WUHU216CR1000,2013-04-16 02:52:00,
2013-04-15 20:02:00,50.3,33.5,0.00,WNW,284,15.2,22.9,52,0.00,,,0.00,WUHU216CR1000,2013-04-16 03:02:00,
2013-04-15 20:07:00,50.3,33.5,0.00,WNW,284,15.2,22.9,52,0.00,,,0.00,WUHU216CR1000,2013-04-16 03:07:00,
2013-04-15 20:17:00,49.8,33.6,0.00,WNW,287,14.4,23.8,54,0.00,,,0.00,WUHU216CR1000,2013-04-16 03:17:00,
2013-04-15 20:22:00,49.8,33.6,0.00,WNW,287,14.4,23.8,54,0.00,,,0.00,WUHU216CR1000,2013-04-16 03:22:00,
2013-04-15 20:32:00,49.4,33.5,0.00,WNW,286,12.7,21.9,54,0.00,,,0.00,WUHU216CR1000,2013-04-16 03:32:00,
2013-04-15 20:37:00,49.4,33.5,0.00,WNW,286,12.7,21.9,54,0.00,,,0.00,WUHU216CR1000,2013-04-16 03:37:00,
2013-04-15 20:47:00,49.2,33.3,0.00,WNW,291,11.7,20.9,54,0.00,,,0.00,WUHU216CR1000,2013-04-16 03:47:00,
2013-04-15 20:52:00,49.2,33.3,0.00,WNW,291,11.7,20.9,54,0.00,,,0.00,WUHU216CR1000,2013-04-16 03:52:00,
2013-04-15 21:02:00,48.8,33.3,0.00,WNW,299,10.0,17.8,55,0.00,,,0.00,WUHU216CR1000,2013-04-16 04:02:00,
2013-04-15 21:03:00,48.8,33.3,0.00,WNW,299,10.0,17.8,55,0.00,,,0.00,WUHU216CR1000,2013-04-16 04:03:00,
2013-04-15 21:08:00,48.8,33.3,0.00,WNW,299,10.0,17.8,55,0.00,,,0.00,WUHU216CR1000,2013-04-16 04:08:00,
2013-04-15 21:17:00,48.6,33.0,0.00,WNW,298,11.6,20.4,55,0.00,,,0.00,WUHU216CR1000,2013-04-16 04:17:00,
2013-04-15 21:22:00,48.6,33.0,0.00,WNW,298,11.6,20.4,55,0.00,,,0.00,WUHU216CR1000,2013-04-16 04:22:00,
2013-04-15 21:32:00,48.4,32.8,0.00,WNW,302,10.7,19.1,55,0.00,,,0.00,WUHU216CR1000,2013-04-16 04:32:00,
2013-04-15 21:37:00,48.4,32.8,0.00,WNW,302,10.7,19.1,55,0.00,,,0.00,WUHU216CR1000,2013-04-16 04:37:00,
2013-04-15 21:47:00,48.1,32.5,0.00,NW,305,11.4,19.5,55,0.00,,,0.00,WUHU216CR1000,2013-04-16 04:47:00,
2013-04-15 21:52:00,48.1,32.5,0.00,NW,305,11.4,19.5,55,0.00,,,0.00,WUHU216CR1000,2013-04-16 04:52:00,
2013-04-15 22:02:00,47.7,32.4,0.00,WNW,291,8.8,17.3,55,0.00,,,0.00,WUHU216CR1000,2013-04-16 05:02:00,
2013-04-15 22:07:00,47.7,32.4,0.00,WNW,291,8.8,17.3,55,0.00,,,0.00,WUHU216CR1000,2013-04-16 05:07:00,
2013-04-15 22:17:00,47.5,32.1,0.00,WNW,287,10.3,18.1,55,0.00,,,0.00,WUHU216CR1000,2013-04-16 05:17:00,
2013-04-15 22:22:00,47.5,32.1,0.00,WNW,287,10.3,18.1,55,0.00,,,0.00,WUHU216CR1000,2013-04-16 05:22:00,
2013-04-15 22:32:00,47.5,32.0,0.00,WNW,300,12.6,22.4,55,0.00,,,0.00,WUHU216CR1000,2013-04-16 05:32:00,
2013-04-15 22:37:00,47.5,32.0,0.00,WNW,300,12.6,22.4,55,0.00,,,0.00,WUHU216CR1000,2013-04-16 05:37:00,
2013-04-15 22:47:00,47.5,31.7,0.00,WNW,301,13.6,21.3,54,0.00,,,0.00,WUHU216CR1000,2013-04-16 05:47:00,
2013-04-15 22:52:00,47.5,31.7,0.00,WNW,301,13.6,21.3,54,0.00,,,0.00,WUHU216CR1000,2013-04-16 05:52:00,
2013-04-15 23:02:00,47.3,31.7,0.00,NW,307,13.4,22.9,55,0.00,,,0.00,WUHU216CR1000,2013-04-16 06:02:00,
2013-04-15 23:07:00,47.3,31.7,0.00,NW,307,13.4,22.9,55,0.00,,,0.00,WUHU216CR1000,2013-04-16 06:07:00,
2013-04-15 23:17:00,47.0,31.5,0.00,NW,307,13.2,19.5,55,0.00,,,0.00,WUHU216CR1000,2013-04-16 06:17:00,
2013-04-15 23:22:00,47.0,31.5,0.00,NW,307,13.2,19.5,55,0.00,,,0.00,WUHU216CR1000,2013-04-16 06:22:00,
2013-04-15 23:32:00,46.9,31.4,0.00,NW,310,13.3,21.7,55,0.00,,,0.00,WUHU216CR1000,2013-04-16 06:32:00,
2013-04-15 23:37:00,46.9,31.4,0.00,NW,310,13.3,21.7,55,0.00,,,0.00,WUHU216CR1000,2013-04-16 06:37:00,
2013-04-15 23:47:00,46.7,31.3,0.00,NW,308,13.4,21.0,55,0.00,,,0.00,WUHU216CR1000,2013-04-16 06:47:00,
2013-04-15 23:52:00,46.7,31.3,0.00,NW,308,13.4,21.0,55,0.00,,,0.00,WUHU216CR1000,2013-04-16 06:52:00,